Weather in Huánuco

Peru     9°56′11″S   76°14′19″W
temp.,
°C
wind,
m/s
gust,
m/s
humid.,
%
clouds,
%
prec.,
mm/h
press.,
hPa
HPBL,
m
16 october, sat
sat1601:00+10ssw11895 3.3 101833
04:00+9ne2289100 0.1 101855
07:00+11n118186 0.1 1020236
10:00+16ne335393 0.9 10171132
13:00+19ne544583 1.4 10131920
16:00+16ne545688 0.6 10121273
19:00+12nne12828 0.6 1016104
22:00+11ene118599 0.2 101835
17 october, sun
sun1701:00+10ne229272 0.8 101856
04:00+9wsw129087 0.1 101878
07:00+11ne117541 0.1 1019247
10:00+16ne4354100 0.3 10171349
13:00+17ne5452100 1.1 10131558
16:00+15ne5457100 0.4 10131274
19:00+11nne2279100 0.6 1018340
22:00+11wnw1182100 0.1 101990
18 october, mon
mon1801:00+11sw227897 1.1 101677
04:00+10ese118348 0.1 101511
07:00+12ese007166 0.1 1017219
10:00+17nne435121 0.1 10151404
13:00+18ne554778 0.8 10121947
16:00+15ne5460100 0.8 10121142
19:00+12nne2280100 1.9 1016208
22:00+10ne1188100 0.0 101819
19 october, tue
tue1901:00+9ne119222 0.0 101711
04:00+8ene019398 0.0 101710
07:00+11nw00805 0.0 1019272
10:00+16nne335413 0.1 10161229
13:00+18ene544982 0.6 10121831
16:00+16ne435640 0.4 10111283
19:00+12ne338395 0.6 1016201
22:00+10nne1192100 0.2 102074
20 october, wed
wed2001:00+10nne1188100 0.3 1018101
04:00+10ne1292100 1.5 1017140
07:00+10ne2290100 5.2 1020202
10:00+10ne2291100 4.6 1022325
13:00+9n0185100 7.8 1021296
16:00+11ssw1273100 0.5 1018424
19:00+11ssw127788 0.6 101825
22:00+10s2274100 0.0 102042